N7NKE Weather Reports


time (UTC)temp
C
wind
direction
speed
KPH
gust
KPH
rain 1hr
cm
rain 24hr
cm
rain mn
cm
humidity
%
barometer
mb
20260509071005 12 21 1.6 3.2 0.00 0.00 0.00 84 1022.5
20260509070505 12 76 1.6 3.2 0.00 0.00 0.00 83 1022.6
20260509070006 12 32 1.6 3.2 0.00 0.00 0.00 82 1022.5
20260509064505 12 12 1.6 3.2 0.00 0.00 0.00 80 1022.5
20260509064005 12 0 0.0 3.2 0.00 0.00 0.00 79 1022.4
20260509063006 13 25 1.6 4.8 0.00 0.00 0.00 79 1022.5
20260509062505 13 320 0.0 3.2 0.00 0.00 0.00 78 1022.4
20260509062005 13 280 0.0 3.2 0.00 0.00 0.00 78 1022.4
20260509061006 13 317 1.6 3.2 0.00 0.00 0.00 77 1022.3
20260509060505 13 327 3.2 4.8 0.00 0.00 0.00 76 1022.2
20260509060006 13 319 1.6 8.0 0.00 0.00 0.00 76 1022.2
20260509055005 13 328 3.2 8.0 0.00 0.00 0.00 76 1022.1
20260509054004 13 324 3.2 9.7 0.00 0.00 0.00 76 1022.1
20260509053505 13 311 4.8 8.0 0.00 0.00 0.00 75 1022.1
20260509053006 13 317 4.8 9.7 0.00 0.00 0.00 75 1022.1
20260509052505 14 323 4.8 9.7 0.00 0.00 0.00 75 1022.2
20260509052005 14 320 4.8 8.0 0.00 0.00 0.00 75 1022.2
20260509051505 14 324 4.8 8.0 0.00 0.00 0.00 74 1022.2
20260509051005 14 331 4.8 4.8 0.00 0.00 0.00 74 1022.1
20260509050505 14 327 3.2 8.0 0.00 0.00 0.00 73 1022.2
20260509050006 14 341 4.8 8.0 0.00 0.00 0.00 73 1022.1
20260509045505 15 326 4.8 8.0 0.00 0.00 0.00 73 1022.1
20260509045005 15 332 4.8 11.3 0.00 0.00 0.00 72 1022.1
20260509044505 15 329 4.8 8.0 0.00 0.00 0.00 72 1022.0
20260509043505 15 334 3.2 4.8 0.00 0.00 0.00 71 1022.0
20260509042505 15 325 3.2 4.8 0.00 0.00 0.00 70 1021.8
20260509042005 15 333 4.8 9.7 0.00 0.00 0.00 70 1021.7
20260509041506 15 333 4.8 9.7 0.00 0.00 0.00 70 1021.6
20260509040505 15 331 3.2 8.0 0.00 0.00 0.00 70 1021.5
20260509040006 16 325 3.2 3.2 0.00 0.00 0.00 70 1021.4
20260509035504 16 325 3.2 4.8 0.00 0.00 0.00 70 1021.4
20260509035005 16 335 3.2 4.8 0.00 0.00 0.00 69 1021.4
20260509034505 16 331 3.2 3.2 0.00 0.00 0.00 70 1021.4
20260509034005 16 345 3.2 4.8 0.00 0.00 0.00 68 1021.3
20260509033505 16 6 1.6 3.2 0.00 0.00 0.00 68 1021.4
20260509033006 16 17 4.8 4.8 0.00 0.00 0.00 66 1021.3
20260509032505 17 30 3.2 4.8 0.00 0.00 0.00 67 1021.3
20260509032005 17 28 1.6 3.2 0.00 0.00 0.00 66 1021.3
20260509031504 17 17 3.2 4.8 0.00 0.00 0.00 64 1021.2
20260509030504 17 325 3.2 4.8 0.00 0.00 0.00 64 1021.1
20260509030005 17 323 1.6 4.8 0.00 0.00 0.00 64 1021.0
20260509025505 17 331 3.2 9.7 0.00 0.00 0.00 63 1021.0
20260509025005 17 333 4.8 9.7 0.00 0.00 0.00 63 1020.9
20260509024004 17 330 3.2 9.7 0.00 0.00 0.00 62 1020.9
20260509023005 17 323 4.8 4.8 0.00 0.00 0.00 61 1020.9
20260509022504 18 349 3.2 8.0 0.00 0.00 0.00 60 1020.9
20260509022005 18 328 6.4 9.7 0.00 0.00 0.00 58 1020.9
20260509021505 18 332 4.8 12.9 0.00 0.00 0.00 58 1021.0
20260509021005 18 339 4.8 9.7 0.00 0.00 0.00 58 1020.9
20260509020505 18 325 4.8 8.0 0.00 0.00 0.00 57 1020.9
20260509020005 18 353 3.2 8.0 0.00 0.00 0.00 58 1020.9
20260509015505 18 337 4.8 9.7 0.00 0.00 0.00 57 1020.9
20260509015005 18 336 4.8 11.3 0.00 0.00 0.00 58 1020.9
20260509014505 18 330 4.8 9.7 0.00 0.00 0.00 58 1020.9
20260509014005 18 340 8.0 9.7 0.00 0.00 0.00 58 1020.9
20260509013504 18 331 4.8 8.0 0.00 0.00 0.00 58 1020.9
20260509013005 18 338 4.8 9.7 0.00 0.00 0.00 58 1020.8
20260509012505 18 333 3.2 8.0 0.00 0.00 0.00 59 1020.9
20260509012005 18 330 4.8 8.0 0.00 0.00 0.00 58 1020.9
20260509011505 18 335 4.8 8.0 0.00 0.00 0.00 57 1020.9
20260509011004 18 324 3.2 8.0 0.00 0.00 0.00 58 1021.0
20260509010005 18 336 3.2 4.8 0.00 0.00 0.00 56 1021.1
20260509005505 18 333 4.8 9.7 0.00 0.00 0.00 55 1021.1
20260509005005 18 358 3.2 9.7 0.00 0.00 0.00 56 1021.0
20260509004504 19 325 3.2 4.8 0.00 0.00 0.00 56 1021.0
20260509004005 19 328 3.2 4.8 0.00 0.00 0.00 56 1021.0
20260509003505 19 324 3.2 4.8 0.00 0.00 0.00 54 1020.9
20260509003005 19 327 3.2 4.8 0.00 0.00 0.00 52 1021.0
20260509002505 20 338 4.8 9.7 0.00 0.00 0.00 51 1020.9
20260509002005 20 1 1.6 3.2 0.00 0.00 0.00 53 1020.9
20260509001505 20 355 3.2 3.2 0.00 0.00 0.00 52 1021.0
20260509001005 20 358 1.6 3.2 0.00 0.00 0.00 53 1021.0
20260509000504 20 274 3.2 4.8 0.00 0.00 0.00 52 1021.0
20260509000005 20 280 3.2 8.0 0.00 0.00 0.00 52 1021.1
20260508235505 20 321 3.2 4.8 0.00 0.00 0.00 53 1021.1
20260508234505 19 251 3.2 4.8 0.00 0.00 0.00 51 1021.1
20260508234005 19 270 1.6 3.2 0.00 0.00 0.00 52 1021.2
20260508233505 19 316 1.6 1.6 0.00 0.00 0.00 53 1021.2
20260508233005 19 85 1.6 3.2 0.00 0.00 0.00 51 1021.2
20260508232505 19 11 1.6 3.2 0.00 0.00 0.00 53 1021.2
20260508231505 19 0 3.2 8.0 0.00 0.00 0.00 53 1021.2
20260508231005 19 17 3.2 8.0 0.00 0.00 0.00 51 1021.2
20260508230505 20 70 3.2 11.3 0.00 0.00 0.00 52 1021.2
20260508230006 20 346 3.2 4.8 0.00 0.00 0.00 51 1021.1
20260508225504 20 6 1.6 4.8 0.00 0.00 0.00 53 1021.1
20260508225005 20 2 4.8 9.7 0.00 0.00 0.00 53 1021.1
20260508224505 19 331 3.2 8.0 0.00 0.00 0.00 52 1021.1
20260508224005 19 37 4.8 8.0 0.00 0.00 0.00 53 1021.1
20260508223005 19 28 4.8 8.0 0.00 0.00 0.00 52 1021.2
20260508222505 19 82 4.8 12.9 0.00 0.00 0.00 53 1021.2
20260508222005 19 57 4.8 8.0 0.00 0.00 0.00 52 1021.2
20260508221005 19 65 4.8 12.9 0.00 0.00 0.00 53 1021.3
20260508220505 19 1 3.2 12.9 0.00 0.00 0.00 54 1021.3
20260508220005 18 50 1.6 11.3 0.00 0.00 0.00 56 1021.3
20260508214504 18 71 8.0 14.5 0.00 0.00 0.00 53 1021.3
20260508214005 18 71 6.4 12.9 0.00 0.00 0.00 56 1021.3
20260508213505 18 104 6.4 12.9 0.00 0.00 0.00 54 1021.3
20260508213005 18 88 4.8 14.5 0.00 0.00 0.00 57 1021.4
20260508212505 18 2 3.2 9.7 0.00 0.00 0.00 54 1021.4
20260508212004 18 50 4.8 16.1 0.00 0.00 0.00 56 1021.4
20260508211505 18 278 1.6 3.2 0.00 0.00 0.00 54 1021.3
20260508211005 18 47 6.4 12.9 0.00 0.00 0.00 56 1021.3
20260508210504 17 150 4.8 9.7 0.00 0.00 0.00 55 1021.3
20260508210005 17 93 4.8 11.3 0.00 0.00 0.00 55 1021.4
20260508205505 17 338 3.2 8.0 0.00 0.00 0.00 57 1021.4
20260508205005 17 15 3.2 4.8 0.00 0.00 0.00 56 1021.4
20260508204505 17 113 4.8 9.7 0.00 0.00 0.00 56 1021.3
20260508204005 17 86 3.2 9.7 0.00 0.00 0.00 56 1021.4
20260508203006 17 113 4.8 12.9 0.00 0.00 0.00 59 1021.3
20260508202504 17 122 4.8 12.9 0.00 0.00 0.00 59 1021.4
20260508202004 17 311 3.2 8.0 0.00 0.00 0.00 56 1021.4
20260508201506 17 206 3.2 12.9 0.00 0.00 0.00 58 1021.4
20260508201005 16 195 3.2 11.3 0.00 0.00 0.00 58 1021.4
20260508200505 16 121 8.0 12.9 0.00 0.00 0.00 59 1021.4
20260508200005 16 93 3.2 8.0 0.00 0.00 0.00 61 1021.5
20260508195505 16 228 1.6 3.2 0.00 0.00 0.00 62 1021.5
20260508195005 15 22 1.6 3.2 0.00 0.00 0.00 63 1021.6
20260508194505 15 319 3.2 4.8 0.00 0.00 0.00 63 1021.6
20260508193504 15 6 4.8 11.3 0.00 0.00 0.00 64 1021.6
20260508193006 16 19 3.2 11.3 0.00 0.00 0.00 62 1021.5
20260508192505 16 19 4.8 9.7 0.00 0.00 0.00 63 1021.6
20260508191505 15 24 3.2 9.7 0.00 0.00 0.00 65 1021.6
20260508191004 15 328 4.8 8.0 0.00 0.00 0.00 64 1021.5
20260508190505 15 326 4.8 8.0 0.00 0.00 0.00 64 1021.5
20260508190005 15 317 6.4 11.3 0.00 0.00 0.00 64 1021.6
20260508185504 15 330 3.2 9.7 0.00 0.00 0.00 66 1021.6
20260508185005 15 19 4.8 12.9 0.00 0.00 0.00 65 1021.6
20260508184505 15 340 3.2 8.0 0.00 0.00 0.00 65 1021.7
20260508184005 14 355 4.8 9.7 0.00 0.00 0.00 65 1021.7
20260508183505 14 327 6.4 9.7 0.00 0.00 0.00 66 1021.8
20260508183005 14 328 4.8 8.0 0.00 0.00 0.00 65 1021.7
20260508182504 15 5 1.6 3.2 0.00 0.00 0.00 64 1021.7
20260508182005 15 44 1.6 9.7 0.00 0.00 0.00 62 1021.7
20260508181005 15 139 4.8 16.1 0.00 0.00 0.00 61 1021.6
20260508180505 15 171 9.7 16.1 0.00 0.00 0.00 61 1021.5
20260508180005 15 173 1.6 4.8 0.00 0.00 0.00 64 1021.3
20260508175505 15 136 3.2 12.9 0.00 0.00 0.00 61 1021.3
20260508174505 15 47 3.2 11.3 0.00 0.00 0.00 63 1021.3
20260508173504 15 129 8.0 16.1 0.00 0.00 0.00 62 1021.3
20260508173004 15 174 6.4 12.9 0.00 0.00 0.00 61 1021.2
20260508172504 15 111 4.8 12.9 0.00 0.00 0.00 62 1021.2
20260508171005 15 205 6.4 11.3 0.00 0.00 0.00 65 1021.1
20260508170504 14 148 4.8 11.3 0.00 0.00 0.00 67 1021.1
20260508170005 14 42 8.0 12.9 0.00 0.00 0.00 67 1021.2
20260508165505 13 174 9.7 16.1 0.00 0.00 0.00 68 1021.2
20260508165005 13 208 6.4 12.9 0.00 0.00 0.00 68 1021.2
20260508164505 13 163 6.4 11.3 0.00 0.00 0.00 67 1021.1
20260508164004 13 176 3.2 11.3 0.00 0.00 0.00 67 1021.1
20260508163504 13 171 6.4 11.3 0.00 0.00 0.00 71 1021.1
20260508162505 12 54 1.6 4.8 0.00 0.00 0.00 70 1021.0
20260508162005 12 207 3.2 4.8 0.00 0.00 0.00 69 1020.9
20260508161505 12 207 4.8 9.7 0.00 0.00 0.00 72 1020.9
20260508161005 12 151 4.8 8.0 0.00 0.00 0.00 72 1020.8
20260508160505 12 203 4.8 8.0 0.00 0.00 0.00 72 1020.9
20260508160004 12 214 1.6 8.0 0.00 0.00 0.00 72 1020.9
20260508155505 12 132 3.2 8.0 0.00 0.00 0.00 72 1020.7
20260508155005 12 177 1.6 4.8 0.00 0.00 0.00 72 1021.0
20260508154504 12 91 3.2 4.8 0.00 0.00 0.00 73 1020.9
20260508154005 12 191 3.2 4.8 0.00 0.00 0.00 75 1020.7
20260508153504 11 105 1.6 4.8 0.00 0.00 0.00 75 1020.6
20260508153005 11 5 1.6 8.0 0.00 0.00 0.00 77 1020.6
20260508152505 11 0 1.6 3.2 0.00 0.00 0.00 78 1020.6
20260508152005 11 113 3.2 4.8 0.00 0.00 0.00 77 1020.6
20260508151005 11 55 1.6 4.8 0.00 0.00 0.00 81 1020.4
20260508150504 11 113 4.8 4.8 0.00 0.00 0.00 80 1020.4
20260508145505 10 4 1.6 3.2 0.00 0.00 0.00 83 1020.5
20260508145004 10 32 1.6 3.2 0.00 0.00 0.00 83 1020.4
20260508144505 10 89 1.6 3.2 0.00 0.00 0.00 85 1020.4
20260508144005 10 89 0.0 3.2 0.00 0.00 0.00 84 1020.4
20260508143505 10 89 0.0 3.2 0.00 0.00 0.00 84 1020.5
20260508143005 10 89 1.6 3.2 0.00 0.00 0.00 84 1020.3
20260508142504 10 89 0.0 1.6 0.00 0.00 0.00 84 1020.5
20260508141505 9 89 1.6 3.2 0.00 0.00 0.00 86 1020.4
20260508141005 9 89 0.0 1.6 0.00 0.00 0.00 87 1020.5
20260508140504 9 92 0.0 3.2 0.00 0.00 0.00 88 1020.4
20260508135505 8 203 1.6 3.2 0.00 0.00 0.00 89 1020.3
20260508135005 8 235 0.0 3.2 0.00 0.00 0.00 89 1020.2
20260508134505 8 237 0.0 3.2 0.00 0.00 0.00 90 1020.0
20260508134005 8 236 0.0 0.0 0.00 0.00 0.00 89 1019.8
20260508133504 8 236 0.0 3.2 0.00 0.00 0.00 89 1019.8
20260508132504 8 0 0.0 1.6 0.00 0.00 0.00 89 1019.6
20260508132005 8 0 0.0 0.0 0.00 0.00 0.00 89 1019.5
20260508131505 8 0 0.0 3.2 0.00 0.00 0.00 89 1019.4
20260508131004 8 0 1.6 1.6 0.00 0.00 0.00 89 1019.4
20260508130505 8 0 1.6 3.2 0.00 0.00 0.00 89 1019.3
20260508130005 8 0 1.6 3.2 0.00 0.00 0.00 89 1019.1
20260508125504 8 0 1.6 1.6 0.00 0.00 0.00 89 1019.1
20260508125005 8 0 1.6 1.6 0.00 0.00 0.00 89 1019.1
20260508124505 8 0 0.0 3.2 0.00 0.00 0.00 89 1018.9
20260508123505 9 180 0.0 3.2 0.00 0.00 0.00 89 1018.8
20260508122505 9 0 1.6 3.2 0.00 0.00 0.00 89 1018.7
20260508122005 9 0 1.6 3.2 0.00 0.00 0.00 88 1018.6
20260508121504 9 357 1.6 3.2 0.00 0.00 0.00 89 1018.6
20260508121004 9 249 0.0 3.2 0.00 0.00 0.00 89 1018.6
20260508120505 9 248 0.0 3.2 0.00 0.00 0.00 89 1018.5
20260508120005 10 249 1.6 3.2 0.00 0.00 0.00 89 1018.4
20260508115504 10 249 0.0 1.6 0.00 0.00 0.00 89 1018.5
20260508115004 9 249 0.0 3.2 0.00 0.00 0.00 88 1018.5
20260508114505 9 317 1.6 3.2 0.00 0.00 0.00 88 1018.4
20260508114005 9 276 0.0 3.2 0.00 0.00 0.00 88 1018.4
20260508113504 9 354 0.0 3.2 0.00 0.00 0.00 87 1018.4
20260508113006 9 0 0.0 3.2 0.00 0.00 0.00 87 1018.3
20260508112504 9 248 0.0 3.2 0.00 0.00 0.00 87 1018.3
20260508112004 9 249 0.0 1.6 0.00 0.00 0.00 87 1018.3
20260508111005 9 249 0.0 3.2 0.00 0.00 0.00 87 1018.0
20260508110505 10 249 0.0 3.2 0.00 0.00 0.00 87 1017.9
20260508110005 10 249 0.0 1.6 0.00 0.00 0.00 87 1017.9
20260508105504 10 250 0.0 1.6 0.00 0.00 0.00 87 1017.9
20260508105005 10 248 0.0 0.0 0.00 0.00 0.00 87 1017.8
20260508104505 10 248 0.0 0.0 0.00 0.00 0.00 87 1017.8
20260508104004 10 248 0.0 0.0 0.00 0.00 0.00 87 1017.8
20260508103504 10 248 0.0 3.2 0.00 0.00 0.00 87 1017.7
20260508103004 10 248 0.0 3.2 0.00 0.00 0.00 87 1017.7
20260508102504 10 354 0.0 3.2 0.00 0.00 0.00 86 1017.6
20260508102005 10 342 0.0 3.2 0.00 0.00 0.00 86 1017.6
20260508101505 10 0 0.0 3.2 0.00 0.00 0.00 86 1017.5
20260508101005 10 248 0.0 1.6 0.00 0.00 0.00 86 1017.4
20260508100005 10 318 0.0 3.2 0.00 0.00 0.00 86 1017.5
20260508095005 10 350 0.0 3.2 0.00 0.00 0.00 86 1017.3
20260508094005 10 249 1.6 3.2 0.00 0.00 0.00 86 1017.3
20260508093504 10 248 1.6 3.2 0.00 0.00 0.00 86 1017.2
20260508093005 10 346 1.6 1.6 0.00 0.00 0.00 86 1017.1
20260508092504 10 266 1.6 1.6 0.00 0.00 0.00 85 1017.1
20260508092004 10 249 1.6 1.6 0.00 0.00 0.00 85 1017.0
20260508091504 10 248 1.6 3.2 0.00 0.00 0.00 85 1017.0
20260508091005 10 290 0.0 3.2 0.00 0.00 0.00 85 1016.9
20260508090005 10 248 0.0 1.6 0.00 0.00 0.00 85 1016.9
20260508085504 10 355 0.0 1.6 0.00 0.00 0.00 84 1016.9
20260508085004 10 0 0.0 3.2 0.00 0.00 0.00 84 1017.0
20260508084504 10 250 0.0 1.6 0.00 0.00 0.00 84 1016.9
20260508084005 10 248 0.0 0.0 0.00 0.00 0.00 84 1016.9
20260508083504 10 248 0.0 0.0 0.00 0.00 0.00 84 1016.9
20260508083005 10 248 0.0 0.0 0.00 0.00 0.00 83 1016.9
20260508082504 10 248 0.0 3.2 0.00 0.00 0.00 83 1016.9
20260508082004 10 248 1.6 3.2 0.00 0.00 0.00 83 1016.8
20260508081505 11 347 0.0 1.6 0.00 0.00 0.00 82 1016.8
20260508081004 11 322 1.6 1.6 0.00 0.00 0.00 82 1016.7
20260508080504 11 252 0.0 3.2 0.00 0.00 0.00 82 1016.7
20260508080004 11 0 0.0 0.0 0.00 0.00 0.00 82 1016.7
20260508075504 11 0 0.0 1.6 0.00 0.00 0.00 81 1016.7
20260508075004 11 0 0.0 3.2 0.00 0.00 0.00 81 1016.7
20260508074504 11 249 1.6 3.2 0.00 0.00 0.00 81 1016.7
20260508074005 11 264 1.6 1.6 0.00 0.00 0.00 80 1016.7
20260508073504 11 249 1.6 1.6 0.00 0.00 0.00 80 1016.7
20260508073005 11 280 1.6 1.6 0.00 0.00 0.00 79 1016.7